SCP
2 3 3 3 3 3 3 3 2 2 1 2 2 2 2 1 1 1 1 0 0 0 0 0 0 0 0 0 0 0 0 0 0 1 1 1 1 1
2 2 3 3 3 3 3 3 3 2 2 2 2 3 3 2 1 1 1 0 0 0 0 0 0 0 0 0 0 0 0 0 0 0 0 1 1 1
2 2 2 2 2 2 3 3 3 3 2 2 3 3 3 2 1 1 1 0 0 0 0 0 0 0 0 0 0 0 0 0 0 0 0 0 0 0
1 1 2 2 2 2 2 2 3 3 3 3 3 3 3 2 2 1 1 0 0 0 0 0 0 0 0 0 0 0 0 0 0 0 0 0 0 0
1 1 1 1 2 2 2 2 2 2 3 3 3 3 2 2 2 1 0 0 0 0 0 0 0 0 0 0 0 0 0 0 0 0 0 0 0 0
1 1 1 1 1 1 1 1 2 2 2 3 3 3 2 2 2 1 0 0 0 0 0 0 0 0 0 0 0 0 0 0 0 0 0 0 0 0
2 1 1 1 1 1 1 1 1 1 2 2 2 3 3 2 2 1 0 0 0 0 0 0 0 0 0 0 0 0 0 0 0 0 0 0 0 0
1 1 1 1 1 1 1 1 1 1 1 1 2 2 2 2 1 1 0 0 0 0 0 0 0 0 0 0 0 0 0 0 0 0 0 0 0 0
1 1 1 1 1 1 1 0 0 0 1 1 1 2 2 2 1 1 0 0 0 0 0 0 0 0 0 0 0 0 0 0 0 0 0 0 0 0
1 1 1 1 1 1 0 0 0 0 0 1 1 1 1 1 1 1 1 0 0 0 0 0 0 0 0 0 0 0 0 0 0 0 0 0 0 0
1 1 1 1 0 0 0 0 0 0 0 0 0 1 1 1 1 1 1 0 0 0 0 0 0 0 0 0 0 0 0 0 0 0 0 0 0 0
0 0 0 0 0 0 0 0 0 0 0 0 0 0 0 0 1 1 1 0 0 0 0 0 0 0 0 0 0 0 0 0 0 0 0 0 0 0
0 0 0 0 0 0 0 0 0 0 0 0 0 0 0 1 1 1 1 0 0 0 0 0 0 0 0 0 0 0 0 0 0 0 0 0 0 0
0 0 0 0 0 0 0 0 0 0 0 0 0 0 0 1 1 1 1 1 0 0 0 0 0 0 0 0 0 0 0 0 0 0 0 0 0 0
0 0 0 0 0 0 0 0 0 0 0 0 0 0 0 1 1 1 1 1 0 0 0 0 0 0 0 0 0 0 0 0 0 0 0 0 0 0
0 0 0 0 0 0 0 0 0 0 0 0 0 0 0 0 1 1 1 0 0 0 0 0 0 0 0 0 0 0 0 0 0 0 0 0 0 0
0 0 0 0 0 0 0 0 0 0 0 0 0 0 0 0 0 0 0 0 0 0 0 0 0 0 0 0 0 0 0 0 0 0 0 0 0 0
0 0 0 0 0 0 0 0 0 0 0 0 0 0 0 0 0 0 0 0 0 0 0 0 0 0 0 0 0 0 0 0 0 0 0 0 0 0
0 0 0 0 0 0 0 0 0 0 0 0 0 0 0 0 0 0 0 0 0 0 0 0 0 0 0 0 0 0 0 0 0 0 0 0 0 0
0 0 0 0 0 0 0 0 0 0 0 0 0 0 0 0 0 0 0 0 0 0 0 0 0 0 0 0 0 0 0 0 0 0 0 0 0 0
0 0 0 0 0 1 0 0 0 0 0 0 0 0 0 0 0 0 0 0 0 0 0 0 0 0 0 0 0 0 0 0 0 0 0 0 0 0
0 0 0 0 1 1 1 0 1 1 0 0 0 0 0 0 0 0 0 0 0 0 0 0 0 0 0 0 0 0 0 0 0 0 0 0 0 0
0 0 0 0 0 1 1 1 1 1 0 0 0 0 0 0 0 0 0 0 0 0 0 0 0 0 0 0 0 0 0 0 0 0 0 0 0 0
Wind_Speed
4 4 4 5 5 4 3 2 2 3 3 3 3 4 5 6 8 5 7 6 5 6 7 8 9 9 10 10 11 12 12 13 14 14 15 15 16 17
4 5 5 4 5 5 4 3 2 3 3 2 3 5 6 7 6 6 8 8 5 3 3 5 7 8 8 9 10 10 11 11 12 12 12 11 11 10
6 6 6 6 5 5 5 3 2 1 2 2 2 5 6 8 7 7 7 5 5 5 4 4 4 4 5 5 6 7 8 8 8 9 8 8 8 7
8 8 7 6 7 5 5 5 4 3 2 3 3 5 6 8 8 7 6 7 5 7 8 8 8 7 6 6 6 6 6 7 7 7 7 7 6 6
10 9 9 8 7 6 6 6 4 4 3 3 4 4 5 7 8 8 8 6 6 6 9 10 11 11 10 10 9 9 9 9 10 10 10 10 10 11
10 10 9 9 9 8 7 7 5 4 4 4 4 4 6 8 8 8 6 5 4 4 6 8 11 13 13 12 12 12 12 12 13 13 14 14 15 15
11 10 11 11 12 9 7 7 7 5 5 5 5 4 5 8 8 6 7 6 4 3 4 4 5 6 7 10 12 14 14 14 15 16 16 16 16 16
10 11 12 10 12 14 12 9 8 8 8 6 6 6 7 8 8 8 9 7 4 2 4 3 4 6 6 6 10 14 15 16 17 17 17 17 16 16
10 9 12 13 13 11 11 10 8 6 5 5 6 6 6 6 8 10 10 8 5 5 4 4 6 7 6 7 12 13 14 16 17 17 17 17 16 15
10 9 10 11 10 10 11 11 9 8 7 5 4 3 3 2 5 8 10 8 8 4 4 5 5 6 7 6 10 13 14 14 16 16 17 17 16 15
10 10 10 11 12 12 11 10 10 8 10 8 6 4 3 1 2 7 10 11 8 4 2 5 6 7 6 6 7 11 12 13 14 15 16 17 17 15
7 8 11 11 12 13 11 10 10 9 9 10 7 6 5 4 5 8 10 12 9 5 4 5 8 6 6 4 4 5 6 8 11 12 14 14 11 7
5 6 6 10 11 13 11 8 9 8 9 9 8 7 5 5 5 7 8 10 10 6 9 7 8 5 6 6 4 5 5 5 5 5 7 7 4 4
5 4 4 11 12 12 8 7 9 8 5 7 7 7 6 6 5 7 8 7 6 7 12 9 7 7 9 8 6 6 5 5 5 5 4 5 4 6
2 0 3 9 10 8 8 9 8 5 5 5 6 7 6 6 6 6 6 6 7 7 9 5 6 8 8 7 9 9 7 6 5 5 5 4 4 6
2 3 6 8 6 6 7 6 5 4 5 5 6 6 6 6 6 7 7 8 7 5 5 5 7 9 6 7 9 10 7 8 7 5 5 4 5 5
4 4 4 5 5 5 6 6 6 5 5 4 5 5 6 6 7 8 9 8 7 7 6 3 5 5 5 7 9 9 7 6 6 6 5 5 5 5
2 4 5 6 7 7 7 7 7 7 6 5 5 5 6 7 8 9 9 9 10 9 8 8 8 6 4 2 6 9 8 7 7 6 6 5 6 6
2 4 4 4 5 5 5 6 6 6 5 5 5 6 6 8 9 10 10 9 10 10 10 10 10 10 10 9 8 10 9 7 8 7 6 5 6 7
5 5 4 4 4 4 4 4 4 5 5 5 5 6 7 9 10 11 11 11 11 11 10 10 11 11 10 9 7 8 11 9 8 8 7 5 3 6
6 6 6 5 4 4 3 3 3 4 5 5 5 7 8 9 10 10 10 14 12 12 13 13 12 13 7 6 8 7 7 9 11 8 8 6 4 4
5 6 6 5 4 3 3 4 4 4 5 5 5 6 7 9 10 12 11 13 12 11 12 10 11 11 7 8 8 8 6 5 6 12 9 5 5 7
6 5 5 5 5 4 4 5 6 5 5 5 6 7 8 9 9 10 11 12 11 11 11 10 10 8 7 8 8 7 8 7 5 5 4 6 9 8
Wind_Direction
257 257 258 263 272 271 270 255 212 213 218 196 155 143 128 118 147 142 128 134 154 184 198 205 210 213 216 218 218 218 218 218 219 218 219 220 221 225
238 238 238 245 258 268 269 276 257 200 206 206 176 155 147 140 141 117 112 116 97 127 169 191 201 206 212 216 219 219 218 217 216 215 215 214 213 215
236 231 228 227 236 249 255 249 257 254 206 196 163 151 136 129 130 126 139 125 93 77 96 119 145 164 179 191 200 201 199 198 198 197 199 199 200 203
235 228 226 219 219 232 242 242 234 221 211 197 157 154 149 140 139 135 122 103 94 77 84 91 98 104 111 120 131 140 149 152 154 154 153 155 158 155
235 226 220 213 212 214 221 228 232 228 210 202 179 165 159 148 134 118 106 105 101 99 87 84 89 93 94 97 102 107 112 115 117 117 116 114 111 108
242 233 223 213 208 206 212 215 214 220 212 208 196 173 163 152 140 133 128 123 115 101 85 88 91 87 88 92 97 101 104 106 106 105 103 102 99 97
254 242 232 219 207 202 205 206 204 207 207 205 201 184 167 160 160 151 140 126 107 125 120 116 106 93 83 85 92 101 102 102 102 101 101 99 97 96
266 253 244 232 215 200 202 199 199 205 207 202 201 194 185 175 166 153 147 147 142 154 132 117 108 98 85 79 98 104 106 106 106 106 104 101 99 98
259 252 245 234 213 199 193 187 192 202 206 200 202 195 182 178 170 158 161 160 138 152 129 96 86 81 76 84 101 107 110 111 112 111 108 105 102 100
251 244 240 245 227 200 192 195 199 198 195 190 188 164 128 124 164 165 153 126 110 111 112 107 102 94 88 85 96 108 112 114 115 114 112 108 102 98
247 237 231 232 234 206 192 190 193 196 198 192 178 158 140 143 161 149 145 141 137 133 115 114 122 107 92 90 97 106 112 118 121 122 121 118 114 104
243 235 231 230 224 200 192 188 192 193 182 182 184 185 197 213 200 172 159 153 143 143 162 128 145 131 112 108 120 123 110 112 124 131 136 139 135 117
237 229 219 208 208 199 192 186 191 185 180 176 180 184 189 200 188 176 173 163 157 149 161 146 156 144 128 138 145 147 141 146 138 139 157 174 183 149
238 232 201 181 186 189 187 174 171 174 172 174 177 182 186 193 188 176 177 169 155 146 159 156 155 159 141 143 146 153 155 161 158 164 183 205 225 162
215 212 164 170 176 183 183 164 166 180 175 179 186 187 185 185 171 155 142 125 109 125 144 143 143 146 149 147 149 155 159 172 176 175 174 178 166 145
131 121 147 163 185 180 164 175 197 202 190 190 189 182 175 174 164 145 139 128 111 93 83 107 138 144 143 141 149 158 161 166 176 179 174 179 174 165
153 157 165 172 189 192 184 186 198 207 209 199 186 177 173 171 158 149 145 140 136 143 135 108 105 113 126 144 155 163 163 164 170 175 173 180 185 179
156 187 194 193 196 198 197 195 198 203 202 195 185 176 174 168 157 152 156 155 150 151 153 152 142 130 125 166 179 166 168 168 169 174 181 182 187 189
230 227 220 216 220 216 206 198 197 196 191 187 181 177 172 164 162 161 162 159 154 157 160 162 164 163 170 178 191 188 172 168 169 177 194 195 184 182
231 237 236 234 233 234 225 208 197 184 181 183 181 175 170 166 166 167 166 164 160 159 161 169 178 181 180 172 163 179 186 170 169 176 193 205 178 171
216 225 232 238 236 227 217 212 202 185 177 178 180 174 171 167 168 169 168 166 163 164 170 177 186 187 182 155 153 163 178 180 168 170 184 191 171 156
230 225 226 230 227 217 207 203 200 185 173 173 176 174 172 170 171 171 171 170 173 171 171 172 178 189 194 169 162 157 145 143 153 164 172 195 188 181
233 233 228 226 217 204 207 206 203 189 177 174 174 175 174 173 172 173 173 172 171 168 167 171 178 185 185 166 157 152 150 151 153 153 144 128 113 105